Weather History for Redding, CA

Change the Weather History Date:

Tuesday, November 26, 2013

  Actual Average Record
Temperature  
Mean Temperature 47 °F -  
Max Temperature 61 °F 58 °F 75 °F (2002)
Min Temperature 32 °F 38 °F 24 °F (1993)
Degree Days  
Heating Degree Days 18    
Cooling Degree Days 0    
Moisture  
Dew Point 35 °F    
Average Humidity 65    
Maximum Humidity 92    
Minimum Humidity 37    
Precipitation  
Precipitation 0.00 in 0.18 in 2.26 in (1997)
Month to date precipitation 1.72 3.69  
Year to date precipitation 12.42 27.56  
Since 1 July precipitation 3.12 6.70  
Sea Level Pressure  
Sea Level Pressure 30.19 in    
Wind  
Wind Speed 0 mph (East)    
Max Wind Speed 5 mph    
Max Gust Speed 9 mph    
Visibility 9 miles    
Events      
T = Trace of Precipitation, MM = Missing Value Source: NWS Daily Summary

Daily Weather History Graph

Daily Weather History Graph

Search for Another Location

Airport:

Trip Planner

Search our weather history database for the weather conditions in past years. The results will help you decide how hot, cold, wet, or windy it might be!

Date:

Astronomy

Nov. 26, 2013 Rise Set
Actual Time 7:08 AM PST 4:44 PM PST
Civil Twilight 6:38 AM PST 5:14 PM PST
Nautical Twilight 6:04 AM PST 5:48 PM PST
Astronomical Twilight 5:32 AM PST 6:20 PM PST
Moon 12:15 AM PST (11/26) 12:55 PM PST (11/26)
Length of Visible Light 10h 36m
Length of Day
9h 36m
Last Quarter, 40% of the Moon is Illuminated
Nov 26
Last Quarter
Dec 2
New
Dec 9
First Quarter
Dec 17
Full
Dec 25
Last Quarter

Hourly Weather History & Observations

Time (PST) Temp. Windchill Dew Point Humidity Pressure Visibility Wind Dir Wind Speed Gust Speed Precip Events Conditions
12:53 AM 36.0 °F - 32.0 °F 86% 30.30 in 10.0 mi Calm Calm - N/A   Clear
1:53 AM 34.0 °F - 30.9 °F 89% 30.29 in 10.0 mi Calm Calm - N/A   Clear
2:53 AM 33.1 °F - 30.9 °F 92% 30.28 in 10.0 mi Calm Calm - N/A   Clear
3:53 AM 34.0 °F - 30.9 °F 89% 30.27 in 10.0 mi Calm Calm - N/A   Clear
4:53 AM 35.1 °F - 30.9 °F 85% 30.28 in 10.0 mi Calm Calm - N/A   Clear
5:53 AM 33.1 °F - 30.9 °F 92% 30.27 in 10.0 mi Calm Calm - N/A   Clear
6:53 AM 32.0 °F - 30.0 °F 92% 30.27 in 10.0 mi Calm Calm - N/A   Clear
7:53 AM 33.1 °F - 30.9 °F 92% 30.27 in 10.0 mi Calm Calm - N/A   Clear
8:53 AM 37.9 °F - 34.0 °F 86% 30.27 in 10.0 mi Calm Calm - N/A   Clear
9:53 AM 45.0 °F - 37.0 °F 74% 30.26 in 10.0 mi Calm Calm - N/A   Clear
10:53 AM 52.0 °F - 37.9 °F 59% 30.23 in 10.0 mi Calm Calm - N/A   Clear
11:53 AM 59.0 °F - 35.1 °F 41% 30.19 in 10.0 mi Calm Calm - N/A   Clear
12:53 PM 59.0 °F - 34.0 °F 39% 30.16 in 10.0 mi Calm Calm - N/A   Clear
1:53 PM 61.0 °F - 35.1 °F 38% 30.13 in 10.0 mi Calm Calm - N/A   Clear
2:53 PM 60.1 °F - 37.9 °F 44% 30.12 in 6.0 mi South 3.5 mph - N/A   Haze
3:53 PM 59.0 °F - 39.9 °F 49% 30.10 in 6.0 mi Calm Calm - N/A   Haze
4:53 PM 54.0 °F - 37.9 °F 55% 30.10 in 7.0 mi Calm Calm - N/A   Clear
5:53 PM 50.0 °F - 37.9 °F 63% 30.10 in 7.0 mi Calm Calm - N/A   Clear
6:53 PM 48.0 °F - 39.9 °F 74% 30.10 in 8.0 mi Calm Calm - N/A   Clear
7:53 PM 46.9 °F - 37.9 °F 71% 30.10 in 9.0 mi Calm Calm - N/A   Clear
8:53 PM 43.0 °F - 37.0 °F 80% 30.10 in 7.0 mi Calm Calm - N/A   Clear
9:53 PM 42.1 °F - 37.0 °F 82% 30.10 in 7.0 mi Calm Calm - N/A   Clear
10:53 PM 41.0 °F 39.0 °F 37.0 °F 86% 30.09 in 8.0 mi North 3.5 mph - N/A   Clear
11:53 PM 39.9 °F - 37.0 °F 89% 30.08 in 6.0 mi Calm Calm - N/A   Clear